TJS-12

Last updated on Tue Sep 22 2026 00:03:16 GMT+0000 (Coordinated Universal Time)

1 62374U 24246A 26264.56294771 -.00000235 00000+0 00000+0 0 9990 2 62374 0.4838 312.9927 0001395 165.0074 231.5787 1.00275600 6539
UTC large
Height (km)
Speed (km/s)
/
Latitude / Longitude
Inclination (degrees)
Orbital Period (minutes)
Azimuth
Elevation
Range (km)
Doppler Factor

Next 0 passes for location: London (51.5072 / 0.1276)

No passes found over London.
TJS-12